Lid_Strength_Index
11 14 15 13 14 15 15 15 16 15 13 14 14 14 12 11 12 12 12 12 12 11 9 10 9 9 6 4 4 3 3 2 2 2 2 2 2 1 1 1 1 1 1 2
13 15 12 12 13 13 14 16 16 15 13 13 14 14 13 12 12 12 12 12 12 12 11 10 10 10 10 6 4 3 2 2 1 1 2 2 2 1 1 1 1 1 1 1
14 13 11 12 13 14 15 16 16 16 15 15 16 16 16 14 13 12 12 12 12 12 11 11 11 11 11 10 7 3 2 1 1 1 2 7 6 7 5 4 2 1 1 1
13 12 12 13 13 13 15 13 14 15 17 19 16 20 16 15 13 13 13 14 12 12 12 11 10 10 11 11 10 6 4 2 1 1 2 2 2 3 3 2 3 2 2 2
14 13 13 14 13 12 14 13 14 15 17 18 18 19 17 16 15 14 13 12 12 11 11 11 10 9 10 10 10 10 6 3 3 2 2 2 2 2 5 6 6 6 4 3
13 12 12 12 12 13 12 13 15 15 17 20 18 19 19 17 16 14 13 12 11 11 10 9 9 9 10 10 9 9 7 5 3 3 3 3 3 4 8 8 7 7 5 4
14 13 12 12 13 12 14 16 20 20 21 21 19 19 17 15 14 14 13 11 11 11 10 10 10 10 9 9 9 9 8 7 5 4 4 5 4 5 7 8 7 9 8 6
16 17 13 11 12 13 14 15 19 23 23 21 18 19 16 14 13 13 12 11 11 11 11 10 10 10 10 9 9 9 9 8 8 7 5 5 6 6 6 7 7 7 7 6
16 16 13 12 12 11 14 16 15 18 25 22 19 18 14 13 13 12 11 11 11 11 10 10 10 10 10 9 9 9 9 9 8 8 8 7 6 6 5 6 7 5 6 6
12 15 13 13 12 12 13 12 16 18 23 24 21 20 17 14 13 12 12 12 11 10 10 9 9 9 9 10 9 9 9 9 9 8 8 8 8 7 7 7 6 6 6 7
12 13 15 13 14 14 14 15 15 15 17 21 23 19 15 13 12 12 11 11 11 11 10 10 9 9 9 9 9 9 9 9 9 9 9 9 8 8 8 7 7 7 7 8
11 13 17 15 13 13 14 14 14 17 19 19 18 18 12 12 12 11 11 11 11 11 10 10 10 10 10 10 10 10 10 10 10 9 9 9 9 9 9 9 8 8 8 9
11 14 18 15 14 14 15 15 14 15 17 19 20 19 12 12 11 11 11 11 11 11 11 11 11 11 10 11 11 11 11 10 10 10 10 10 9 9 9 9 9 9 9 9
10 14 15 17 16 14 15 14 13 14 18 18 17 16 15 13 12 11 12 11 11 11 10 10 10 10 10 10 10 10 10 10 11 11 10 10 10 9 9 9 9 9 10 10
11 15 14 14 13 13 14 14 14 15 16 17 16 16 14 12 12 12 11 11 11 11 11 10 10 10 10 10 10 10 10 11 11 11 11 11 11 11 11 11 11 12 12 11
11 15 14 15 15 14 15 15 15 15 15 14 15 14 11 12 11 12 11 11 11 11 10 10 10 10 11 11 11 11 11 12 12 13 13 12 13 13 13 13 12 12 12 12
13 15 16 18 17 16 18 16 15 15 14 14 17 14 13 13 12 12 12 12 12 11 11 10 10 10 10 10 11 11 11 12 13 14 14 14 14 13 13 13 13 13 12 12
15 16 17 20 20 22 17 17 16 14 14 13 14 14 13 13 13 13 12 12 12 12 12 11 11 11 11 11 11 12 13 13 13 13 13 14 14 13 13 13 13 13 13 13
13 15 20 20 26 20 17 17 17 17 17 14 14 14 14 14 15 14 11 10 11 11 11 11 11 11 11 12 12 13 13 13 13 13 13 13 13 14 13 13 13 13 14 14
14 14 16 25 26 26 20 16 15 15 20 15 13 12 13 13 16 14 10 11 11 11 11 11 11 11 11 11 12 13 13 14 13 13 13 13 13 14 14 13 13 14 16 14
14 15 15 20 20 20 17 15 13 19 18 15 11 11 12 13 12 11 11 11 10 11 11 11 11 11 11 11 13 13 13 13 12 13 14 14 14 14 14 14 16 17 16 15
14 15 17 15 16 20 15 14 15 14 12 11 11 11 11 11 11 11 11 11 11 11 11 11 12 12 12 12 14 13 14 13 14 15 15 15 15 15 14 16 17 17 17 17
16 14 16 14 14 11 12 12 11 10 11 11 11 10 11 12 12 12 11 11 11 11 11 11 13 13 13 14 16 15 14 15 15 16 16 15 15 15 15 18 16 13 13 13
15 13 15 14 13 12 12 11 10 10 10 10 10 11 12 12 12 12 12 12 12 13 13 14 15 15 14 14 15 16 16 14 14 14 15 15 15 15 16 15 15 14 13 13
15 13 16 16 13 13 12 11 10 10 11 12 12 12 12 12 12 12 13 13 12 13 14 16 15 15 14 14 16 19 17 20 18 15 14 14 12 14 15 16 16 16 16 14
14 14 15 16 12 12 12 11 11 12 12 12 12 13 12 12 12 12 13 13 14 14 15 15 16 16 16 17 17 19 22 22 21 19 15 13 12 12 15 16 15 10 9 8